{"data":{"norad_id":68965,"epoch":"2026-09-20T00:48:54.741888Z","epoch_age_seconds":59544,"freshness":"FRESH","line1":"1 68965U 26099Q   26263.03396692  .00018444  00000+0  55589-3 0  9992","line2":"2 68965  53.1582  77.9025 0000832 114.9423 245.1666 15.34386900 21830","mean_motion":15.343869,"eccentricity":8.32e-5,"inclination_deg":53.1582,"raan_deg":77.9025,"arg_perigee_deg":114.9423,"mean_anomaly_deg":245.1666,"bstar":0.00055589,"rev_number":2183,"period_min":93.84855931708,"perigee_km":462.17301529734,"apogee_km":463.3113375923,"semimajor_km":6840.8791764448,"source":"CELESTRAK","updated_at":"2026-09-20T09:00:44.054262Z"}}